Home   Weather   Minden   Past weeks
Flag for Germany

Past Weather in Minden, North Rhine-Westphalia, Germany — Yesterday and Last 2 Weeks

Now
55 °F

Partly sunny.


Feels Like: 53 °F
Forecast: 58 / 43 °F
Wind: 8 mph from West

Location: Bueckeburg

Current Time: May 27, 2019 at 8:45:08 am

Latest Report: May 27, 2019 at 7:28 am


Visibility: N/A

Pressure: 29.74 "Hg

Humidity: 94%

Dew Point: 54 °F

Location of MindenLocation

Past Weather in Minden — Graph

°F

Minden Temperature Yesterday

Maximum temperature yesterday: 70 °F (at 3:20 pm)
Minimum temperature yesterday: 46 °F (at 2:20 am)
Average temperature yesterday: 60 °F

High & Low Weather Summary for the Past Weeks

 TemperatureHumidityPressure
High75 °F (May 19, 4:20 pm)100% (May 14, 5:20 am)30.69 "Hg (May 14, 5:20 am)
Low34 °F (May 13, 4:20 am)29% (May 14, 5:20 pm)29.62 "Hg (May 19, 4:20 pm)
Average55 °F73%30.00 "Hg
* Reported May 12 7:20 am — May 27 7:28 am, Minden. Weather by CustomWeather, © 2019

Note: Actual official high and low records may vary slightly from our data, if they occured in-between our weather recording intervals... More about our weather records

Advertising

Minden Weather History for the Previous 24 Hours

Scroll right to see more
 ConditionsComfort  
Time TempWeatherWind HumidityBarometerVisibility
7:28 am
Mon, May 27
55 °FPartly sunny.8 mph94%29.74 "HgN/A
7:01 am57 °FDrizzle. Fog.7 mph94%29.74 "Hg1 mi
6:48 am57 °FDrizzle. Fog.9 mph94%29.74 "Hg2 mi
6:29 am57 °FDrizzle. Fog.9 mph94%29.74 "Hg2 mi
5:45 am57 °FDrizzle. Fog.9 mph94%29.74 "Hg3 mi
5:20 am57 °FDrizzle. Fog.7 mph94%29.74 "Hg3 mi
5:07 am57 °FPassing clouds.8 mph94%29.74 "Hg2 mi
4:37 am57 °FPassing clouds.5 mph94%29.74 "Hg4 mi
4:12 am57 °FDrizzle. Fog.8 mph94%29.74 "Hg2 mi
3:27 am61 °FLight rain. Passing clouds.13 mph72%29.74 "HgN/A
2:20 am63 °FPassing clouds.12 mph68%29.74 "HgN/A
1:20 am64 °FPassing clouds.13 mph64%29.74 "HgN/A
12:20 am64 °FPassing clouds.14 mph68%29.74 "HgN/A
11:20 pm
Sun, May 26
64 °FPassing clouds.13 mph68%29.77 "HgN/A
10:20 pm66 °FPassing clouds.10 mph60%29.77 "HgN/A
9:20 pm66 °FBroken clouds.13 mph60%29.77 "HgN/A
8:20 pm68 °FPartly sunny.13 mph56%29.80 "HgN/A
7:20 pm68 °FPartly sunny.15 mph56%29.80 "HgN/A
6:20 pm68 °FBroken clouds.15 mph56%29.80 "HgN/A
5:20 pm68 °FMild.17 mph56%29.83 "Hg6 mi
4:20 pm70 °FMild.16 mph50%29.83 "Hg5 mi
3:20 pm70 °FMild.17 mph46%29.86 "Hg5 mi
2:20 pm68 °FMild.18 mph49%29.86 "Hg5 mi
1:20 pm66 °FMild.17 mph52%29.89 "Hg5 mi
12:20 pm64 °FMild.12 mph60%29.89 "Hg5 mi
11:20 am63 °FMild.13 mph64%29.92 "Hg5 mi
10:20 am63 °FMild.14 mph64%29.92 "Hg5 mi
9:20 am59 °FCool.13 mph68%29.92 "Hg5 mi
8:20 am55 °FCool.12 mph77%29.92 "Hg6 mi
Weather by CustomWeather, © 2019

See weather overview